Stündliche Wetter Otradnyy

Heute, 15 April, Donnerstag

Zeit Temperatur Niederschläge Wind Luftdruck Luftfeuchtigkeit
00:00 +9°C° 0 mm 1 m/S 751 mmHg 89%
01:00 +9°C° 0 mm 1 m/S 751 mmHg 89%
02:00 +8°C° 0 mm 2 m/S 751 mmHg 89%
03:00 +7°C° 0 mm 2 m/S 751 mmHg 89%
04:00 +7°C° 0 mm 2 m/S 751 mmHg 89%
05:00 +7°C° 0 mm 2 m/S 751 mmHg 89%
06:00 +7°C° 0 mm 2 m/S 752 mmHg 89%
07:00 +9°C° 0 mm 2 m/S 752 mmHg 82%
08:00 +12°C° 0 mm 2 m/S 752 mmHg 76%
09:00 +15°C° 0 mm 2 m/S 752 mmHg 69%
10:00 +16°C° 0 mm 1 m/S 752 mmHg 63%
11:00 +18°C° 0 mm 1 m/S 751 mmHg 57%
12:00 +18°C° 0 mm 0 m/S 751 mmHg 50%
13:00 +20°C° 0 mm 1 m/S 751 mmHg 50%
14:00 +20°C° 0 mm 1 m/S 751 mmHg 50%
15:00 +20°C° 0 mm 2 m/S 751 mmHg 50%
16:00 +18°C° 0.2 mm 2 m/S 751 mmHg 58%
17:00 +17°C° 0.2 mm 2 m/S 751 mmHg 65%
18:00 +16°C° 0.2 mm 2 m/S 751 mmHg 73%
19:00 +15°C° 0 mm 2 m/S 752 mmHg 77%
20:00 +13°C° 0 mm 2 m/S 752 mmHg 81%
21:00 +12°C° 0 mm 1 m/S 752 mmHg 85%
22:00 +11°C° 0 mm 1 m/S 752 mmHg 86%
23:00 +10°C° 0 mm 2 m/S 752 mmHg 87%

Morgen, 16 April, Freitag

Zeit Temperatur Niederschläge Wind Luftdruck Luftfeuchtigkeit
00:00 +9°C° 0 mm 2 m/S 752 mmHg 88%
01:00 +9°C° 0 mm 2 m/S 752 mmHg 88%
02:00 +10°C° 0 mm 1 m/S 752 mmHg 88%
03:00 +10°C° 0 mm 1 m/S 752 mmHg 88%
04:00 +10°C° 0 mm 1 m/S 752 mmHg 89%
05:00 +10°C° 0 mm 1 m/S 752 mmHg 89%
06:00 +10°C° 0 mm 1 m/S 752 mmHg 89%
07:00 +11°C° 0 mm 1 m/S 752 mmHg 85%
08:00 +12°C° 0 mm 1 m/S 752 mmHg 82%
09:00 +14°C° 0 mm 1 m/S 753 mmHg 78%
10:00 +14°C° 0.1 mm 2 m/S 753 mmHg 78%
11:00 +13°C° 0.1 mm 3 m/S 752 mmHg 79%
12:00 +14°C° 0.1 mm 3 m/S 752 mmHg 79%
13:00 +13°C° 0.4 mm 3 m/S 753 mmHg 82%
14:00 +12°C° 0.4 mm 4 m/S 753 mmHg 85%
15:00 +11°C° 0.4 mm 4 m/S 753 mmHg 88%
16:00 +11°C° 0 mm 3 m/S 753 mmHg 87%
17:00 +12°C° 0 mm 2 m/S 753 mmHg 87%
18:00 +12°C° 0 mm 1 m/S 753 mmHg 86%
19:00 +11°C° 0 mm 1 m/S 753 mmHg 88%
20:00 +11°C° 0 mm 1 m/S 754 mmHg 90%
21:00 +10°C° 0 mm 1 m/S 754 mmHg 92%
22:00 +10°C° 0.1 mm 1 m/S 754 mmHg 92%
23:00 +10°C° 0.1 mm 1 m/S 754 mmHg 93%

übermorgen, 17 April, Samstag

Zeit Temperatur Niederschläge Wind Luftdruck Luftfeuchtigkeit
00:00 +9°C° 0.1 mm 0 m/S 753 mmHg 93%
01:00 +10°C° 1.6 mm 1 m/S 753 mmHg 94%
02:00 +9°C° 1.6 mm 2 m/S 754 mmHg 96%
03:00 +9°C° 1.6 mm 2 m/S 754 mmHg 97%
04:00 +9°C° 0.2 mm 2 m/S 754 mmHg 96%
05:00 +8°C° 0.2 mm 2 m/S 755 mmHg 96%
06:00 +8°C° 0.2 mm 2 m/S 755 mmHg 95%
07:00 +9°C° 0 mm 2 m/S 755 mmHg 89%
08:00 +9°C° 0 mm 2 m/S 755 mmHg 84%
09:00 +10°C° 0 mm 2 m/S 756 mmHg 78%
10:00 +12°C° 0 mm 2 m/S 756 mmHg 74%
11:00 +13°C° 0 mm 2 m/S 756 mmHg 70%
12:00 +14°C° 0 mm 2 m/S 756 mmHg 66%
13:00 +14°C° 0 mm 2 m/S 755 mmHg 66%
14:00 +14°C° 0 mm 1 m/S 755 mmHg 65%
15:00 +14°C° 0 mm 1 m/S 755 mmHg 65%
16:00 +14°C° 0 mm 1 m/S 755 mmHg 70%
17:00 +13°C° 0 mm 1 m/S 755 mmHg 75%
18:00 +12°C° 0 mm 2 m/S 755 mmHg 80%
19:00 +12°C° 0 mm 2 m/S 755 mmHg 82%
20:00 +11°C° 0 mm 1 m/S 755 mmHg 83%
21:00 +11°C° 0 mm 1 m/S 755 mmHg 85%
22:00 +10°C° 0 mm 1 m/S 755 mmHg 86%
23:00 +10°C° 0 mm 1 m/S 755 mmHg 87%

18 April, Sonntag

Zeit Temperatur Niederschläge Wind Luftdruck Luftfeuchtigkeit
00:00 +10°C° 0 mm 1 m/S 754 mmHg 88%
01:00 +9°C° 0 mm 2 m/S 754 mmHg 87%
02:00 +9°C° 0 mm 2 m/S 754 mmHg 87%
03:00 +9°C° 0 mm 2 m/S 754 mmHg 86%
04:00 +9°C° 0 mm 2 m/S 754 mmHg 86%
05:00 +9°C° 0 mm 2 m/S 754 mmHg 86%
06:00 +9°C° 0 mm 2 m/S 754 mmHg 85%
07:00 +9°C° 0 mm 2 m/S 753 mmHg 86%
08:00 +9°C° 0 mm 2 m/S 753 mmHg 87%
09:00 +10°C° 0 mm 2 m/S 753 mmHg 87%
10:00 +12°C° 0 mm 2 m/S 753 mmHg 85%
11:00 +13°C° 0 mm 2 m/S 753 mmHg 82%
12:00 +12°C° 0 mm 3 m/S 752 mmHg 80%
13:00 +13°C° 0 mm 3 m/S 753 mmHg 81%
14:00 +13°C° 0 mm 3 m/S 753 mmHg 81%
15:00 +13°C° 0 mm 3 m/S 753 mmHg 82%
16:00 +12°C° 0.1 mm 3 m/S 753 mmHg 85%
17:00 +13°C° 0.1 mm 2 m/S 753 mmHg 88%
18:00 +12°C° 0.1 mm 2 m/S 753 mmHg 90%
19:00 +12°C° 0.1 mm 2 m/S 754 mmHg 91%
20:00 +12°C° 0.1 mm 2 m/S 754 mmHg 91%
21:00 +12°C° 0.1 mm 2 m/S 754 mmHg 92%
22:00 +12°C° 0 mm 2 m/S 754 mmHg 92%
23:00 +11°C° 0 mm 3 m/S 754 mmHg 92%

19 April, Montag

Zeit Temperatur Niederschläge Wind Luftdruck Luftfeuchtigkeit
00:00 +11°C° 0 mm 3 m/S 753 mmHg 93%
01:00 +11°C° 0 mm 3 m/S 753 mmHg 93%
02:00 +11°C° 0 mm 3 m/S 753 mmHg 93%
03:00 +11°C° 0 mm 3 m/S 753 mmHg 94%
04:00 +11°C° 0 mm 3 m/S 753 mmHg 94%
05:00 +11°C° 0 mm 3 m/S 753 mmHg 94%
06:00 +11°C° 0 mm 3 m/S 753 mmHg 94%
07:00 +12°C° 0 mm 4 m/S 753 mmHg 89%
08:00 +14°C° 0 mm 4 m/S 753 mmHg 85%
09:00 +17°C° 0 mm 4 m/S 753 mmHg 80%
10:00 +18°C° 0 mm 4 m/S 753 mmHg 76%
11:00 +19°C° 0 mm 5 m/S 753 mmHg 71%
12:00 +21°C° 0 mm 5 m/S 752 mmHg 67%
13:00 +21°C° 0 mm 6 m/S 752 mmHg 67%
14:00 +22°C° 0 mm 6 m/S 751 mmHg 66%
15:00 +22°C° 0 mm 7 m/S 751 mmHg 66%
16:00 +21°C° 0 mm 7 m/S 751 mmHg 69%
17:00 +20°C° 0 mm 7 m/S 750 mmHg 73%
18:00 +17°C° 0 mm 8 m/S 750 mmHg 76%
19:00 +16°C° 0 mm 8 m/S 750 mmHg 76%
20:00 +16°C° 0 mm 8 m/S 749 mmHg 76%
21:00 +15°C° 0 mm 8 m/S 749 mmHg 76%
22:00 +15°C° 0 mm 8 m/S 748 mmHg 75%
23:00 +15°C° 0 mm 8 m/S 747 mmHg 74%

20 April, Dienstag

Zeit Temperatur Niederschläge Wind Luftdruck Luftfeuchtigkeit
00:00 +13°C° 0 mm 8 m/S 747 mmHg 73%
01:00 +14°C° 0.1 mm 7 m/S 746 mmHg 75%
02:00 +14°C° 0.1 mm 7 m/S 746 mmHg 78%
03:00 +13°C° 0.1 mm 6 m/S 746 mmHg 80%
04:00 +12°C° 0 mm 7 m/S 745 mmHg 79%
05:00 +12°C° 0 mm 9 m/S 744 mmHg 78%
06:00 +12°C° 0 mm 10 m/S 743 mmHg 77%
07:00 +13°C° 0 mm 9 m/S 743 mmHg 75%
08:00 +13°C° 0 mm 8 m/S 744 mmHg 74%
09:00 +15°C° 0 mm 7 m/S 744 mmHg 73%
10:00 +17°C° 0.1 mm 6 m/S 744 mmHg 71%
11:00 +19°C° 0.1 mm 5 m/S 745 mmHg 69%
12:00 +20°C° 0.1 mm 4 m/S 746 mmHg 67%
13:00 +21°C° 0.1 mm 3 m/S 746 mmHg 66%
14:00 +21°C° 0.1 mm 3 m/S 746 mmHg 65%
15:00 +22°C° 0.1 mm 3 m/S 746 mmHg 64%
16:00 +21°C° 0.3 mm 3 m/S 746 mmHg 70%
17:00 +20°C° 0.3 mm 3 m/S 747 mmHg 76%
18:00 +19°C° 0.3 mm 2 m/S 747 mmHg 82%
19:00 +18°C° 0.3 mm 3 m/S 748 mmHg 84%
20:00 +17°C° 0.3 mm 3 m/S 749 mmHg 86%
21:00 +16°C° 0.3 mm 3 m/S 749 mmHg 88%
22:00 +14°C° 0.2 mm 3 m/S 750 mmHg 88%
23:00 +15°C° 0.2 mm 2 m/S 750 mmHg 88%
Mehr zeigen

Wir brauchen deine Erlaubnis

Meteoprog und unser Service Anbieter werden persönliche Daten aufbewahren, so wie Cookies, Geräte Bezeichnung oder ähnliche Technologien von deinem Gerät und Prozess, so wie Persönliche Daten Inhalte und Werbungen, genauso wie social Media und den Verkehr zu analysieren.

  • Aufbewahrung und/oder Zugang zu deiner Geräte Informationen.

    Cookies, Geräte Bezeichnung oder andere Informationen, können aufbewahrt oder Zugang zu deinem Gerät erhalten, für den Grund, der oben angegeben wird.

  • Personalisierte Werbung und Inhalte, Messungen, Einblick in das Publikum und Produkt Entwicklung.

    Werbungen und Inhalte können personalisiert werden, basierend auf ein Profil. Mehr Daten können besser personalisierte Werbungen und Inhalte hinzufügen. Werbung und Inhalte können gezeigt und gemessen werden. Einblicke über das Publikum, welche die Werbung gesehen haben und den Inhalt, können abgeleitet werden. So wie Daten können genutzt werden, um es zu verbessern oder die Benutzer Erfahrung zu verbessern das System und die Software.

Wenn du “Ich stimme zu” klickst, erlaubst du uns, die Cookies zu benutzen die Geräte Bezeichnung, den Web oder ähnliche Technologien zu benutzen. Deine Settings, können in deinem Gerät bei deinem Browser geändert werden.

Für den bestimmten Zweck, berechtigten Interessen beruhen darauf, mehr als auf den Inhalt. Du kannst mehr darüber in unseren Privaten und Cookie Politik lesen.